Boulbon, France

2:12 AM CEST on September 22, 2017 (GMT +0200)
Boulbon

Weather History for 07563 - March, 2014

Change the Weather History Date:

Sunday, March 9, 2014

  Actual Average Record
Temperature  
Mean Temperature 50 °F -  
Max Temperature 67 °F - - ()
Min Temperature 33 °F - - ()
Degree Days  
Heating Degree Days 15    
Moisture  
Dew Point 37 °F    
Average Humidity 61    
Maximum Humidity 90    
Minimum Humidity 24    
Precipitation  
Precipitation 0.00 in - - ()
Sea Level Pressure  
Sea Level Pressure 30.36 in    
Wind  
Wind Speed 2 mph ()    
Max Wind Speed 7 mph    
Max Gust Speed -    
Visibility 10.5 miles    
Events      
T = Trace of Precipitation, MM = Missing Value Source: Averaged Metar Reports

Daily Weather History Graph

Daily Weather History Graph

Search for Another Location

Airport or City:

Trip Planner

Search our weather history database for the weather conditions in past years. The results will help you decide how hot, cold, wet, or windy it might be!

Date:

Astronomy

Mar. 09, 2014 Rise Set
Actual Time 7:04 AM CET 6:39 PM CET
Civil Twilight 6:35 AM CET 7:08 PM CET
Nautical Twilight 6:02 AM CET 7:41 PM CET
Astronomical Twilight 5:29 AM CET 8:15 PM CET
Moon 12:11 PM CET (3/9) 2:25 AM CET (3/9)
Length of Visible Light 12h 32m
Length of Day
11h 35m
First Quarter, 59% of the Moon is Illuminated
Mar 9
First Quarter
Mar 16
Full
Mar 24
Last Quarter
Mar 30
New
Apr 7
First Quarter

Hourly Weather History & Observations

Time (CET) Temp. Dew Point Humidity Pressure Visibility Wind Dir Wind Speed Gust Speed Precip Events Conditions
12:00 AM 41 °F 37 °F 80% 30.39 in 9 mi East 1.2 mph - -   Clear
1:00 AM 39 °F 36 °F 84% 30.39 in 7 mi SE 1.2 mph - -   Clear
2:00 AM 40 °F 37 °F 83% 30.40 in 7 mi SSE 2.3 mph - -   Clear
3:00 AM 38 °F 35 °F 85% 30.39 in 6 mi NNW 2.3 mph - -   Clear
4:00 AM 36 °F 34 °F 88% 30.38 in 7 mi SSW 1.2 mph - -   Clear
5:00 AM 36 °F 33 °F 87% 30.38 in 6 mi NNW 2.3 mph - -   Clear
6:00 AM 34 °F 32 °F 90% 30.40 in 9 mi Calm Calm - -   Clear
7:00 AM 34 °F 32 °F 89% 30.41 in 7 mi WNW 1.2 mph - -   Clear
8:00 AM 37 °F 35 °F 89% 30.41 in 5 mi NW 2.3 mph - -   Clear
9:00 AM 46 °F 40 °F 74% 30.43 in 12 mi North 2.3 mph - -   Clear
10:00 AM 51 °F 40 °F 56% 30.43 in 16 mi North 3.5 mph - -   Clear
11:00 AM 55 °F 41 °F 48% 30.42 in 12 mi NNW 3.5 mph - -   Clear
12:00 PM 60 °F 43 °F 42% 30.40 in 11 mi North 3.5 mph - -   Clear
1:00 PM 62 °F 42 °F 36% 30.38 in 13 mi North 4.6 mph - -   Clear
2:00 PM 65 °F 39 °F 27% 30.35 in 25 mi NNW 3.5 mph - -   Clear
3:00 PM 67 °F 40 °F 26% 30.33 in 22 mi West 3.5 mph - -   Clear
4:00 PM 67 °F 39 °F 24% 30.31 in 28 mi West 6.9 mph - -   Clear
5:00 PM 66 °F 38 °F 24% 30.29 in 25 mi West 5.8 mph - -   Clear
6:00 PM 63 °F 37 °F 27% 30.29 in 31 mi West 6.9 mph - -   Clear
7:00 PM 57 °F 39 °F 39% 30.29 in 31 mi West 3.5 mph - -   Clear
8:00 PM 50 °F 40 °F 59% 30.29 in 16 mi South 1.2 mph - -   Clear
9:00 PM 46 °F 38 °F 65% 30.29 in 15 mi ESE 2.3 mph - -   Clear
10:00 PM 46 °F 36 °F 59% 30.30 in 16 mi East 3.5 mph - -   Clear
11:00 PM 42 °F 36 °F 74% 30.29 in 15 mi East 2.3 mph - -   Clear